Regional Weather Roundup
Issued by NWS

Home | Current Version | Previous Version | Text Only | Print | Product List | Glossary Off
Versions: 1 2 3 4 5 6 7 8 9 10 11 12 13 14 15 16 17 18 19 20 21 22 23 24 25 26 27 28 29 30 31 32 33 34 35 36 37 38 39 40 41 42 43 44 45 46 47 48 49 50

249
ASUS43 KLSX 102110
RWRMO

WEATHER SUMMARY FOR MISSOURI
NATIONAL WEATHER SERVICE SPRINGFIELD MO
300 PM CST WED FEB 10 2016

NOTE: "FAIR" INDICATES FEW OR NO CLOUDS BELOW 12,000 FEET WITH NO
       SIGNIFICANT WEATHER AND/OR OBSTRUCTIONS TO VISIBILITY.
       CURRENT SKY AND/OR WEATHER CONDITIONS ARE NOT AVAILABLE FOR
       CHILLICOTHE AND FARMINGTON.

MOZ001>031-035>038-043-044-053-054-102200-
...NORTHERN AND WESTERN MISSOURI...

CITY           SKY/WX    TMP DP  RH WIND       PRES   REMARKS
KANSAS CTY INT MOSUNNY   46  21  37 S8        29.90F
KANSAS C DTWN  SUNNY     48  20  32 SW7       29.91F
LEE`S SUMMIT   SUNNY     46  19  34 S12       29.91F
ST JOSEPH      SUNNY     46  19  34 S5        29.91F
CHILLICOTHE      N/A     33  21  61 E10       30.00S WCI  25
KIRKSVILLE     CLOUDY    21  16  81 SE8       30.05R WCI  11

$$
MOZ066>068-077>081-088>096-101>105-102200-
...SOUTHWEST MISSOURI...

CITY           SKY/WX    TMP DP  RH WIND       PRES   REMARKS
SPRINGFIELD    SUNNY     49  18  29 SW16      29.97F
JOPLIN         SUNNY     50  21  32 SW16      29.96F

$$
MOZ032>034-039>042-045>050-055>058-069>072-102200-
...CENTRAL MISSOURI...

CITY           SKY/WX    TMP DP  RH WIND       PRES   REMARKS
COLUMBIA       CLOUDY    25  20  81 E8        30.03F WCI  16
JEFFERSON CITY CLOUDY    27  20  75 E12       30.06F WCI  17
ROLLA          MOSUNNY   27  20  75 SE8       30.02F WCI  19
SEDALIA        SUNNY     42  16  34 S9G22     29.97F
WHITEMAN AFB   MOSUNNY   42  18  37 SW15      29.94F
WARRENSBURG    SUNNY     43  18  36 S10       29.95F
OSAGE BEACH    SUNNY     43  16  33 S8G16     29.99F

$$
MOZ051-052-059>065-102200-
...EAST CENTRAL MISSOURI...

CITY           SKY/WX    TMP DP  RH WIND       PRES   REMARKS
ST LOUIS INTL  LGT SNOW  22  15  75 SW5       30.12S WCI  16
SPIRIT OF STL  FLURRIES  22  16  78 SW3       30.12S
ST CHARLES     LGT SNOW  20  17  88 SW7       30.12S VSB 1   WCI  11

$$
MOZ072>076-082>087-097>100-106>115-102200-
...SOUTH CENTRAL AND SOUTHEAST MISSOURI...

CITY           SKY/WX    TMP DP  RH WIND       PRES   REMARKS
CAPE GIRARDEAU LGT SNOW  24  18  77 SW8       30.16F WCI  15
FARMINGTON     FLURRIES  23  19  85 S6        30.10S WCI  16
POPLAR BLUFF   PTSUNNY   31  12  45 SW3       30.14F
WEST PLAINS    SUNNY     40  13  33 S9        30.04F

$$




USA.gov is the U.S. government's official web portal to all federal, state and local government web resources and services.